User: anonymous   Login
Location: Unspecified
(0.0000°N, 0.0000°E)
Time: 04:07:57
(UTC+00:00)
Language:

NTS 1 - Orbit

View from above orbital plane
View from above orbital plane
View from above satellite
View from above satellite

Ground track
Ground track

The orbit data is extracted from the following two-line orbital elements,

1  7369U 74054A   18342.58685348  .00000037  00000-0  00000+0 0  9999
2  7369 125.1056 311.2035 0075270 272.4249 216.8004  3.07214555498276
Epoch (UTC): 08 December 2018 14:05:04
Eccentricity: 0.0075270
inclination: 125.1056°
perigee height: 13459 km
apogee height: 13760 km
right ascension of ascending node: 311.2035°
argument of perigee: 272.4249°
revolutions per day: 3.07214555
mean anomaly at epoch: 216.8004°
orbit number at epoch: 49827

The dashed part of the orbit path shows where the satellite is in the earth's shadow,  

DLR